This is the latest recevied weather packets stored in our database for station/object W5ZYX. If no packets are shown the sender has not sent any weather packets the latest 1 day(s).
| Time | Temp. | Humidity | Pressure | Rain* | Wind** | Luminosity | Snow |
|---|---|---|---|---|---|---|---|
| 1778012736 | 29.44° C | 74% | 1007.5 hPa | 0 mm | 2.24 m/s, 175° | - | - |
| 1778012436 | 29.44° C | 74% | 1007.6 hPa | 0 mm | 1.79 m/s, 184° | - | - |
| 1778012145 | 29.44° C | 74% | 1007.6 hPa | 0 mm | 2.24 m/s, 184° | - | - |
| 1778011837 | 28.89° C | 74% | 1007.7 hPa | 0 mm | 1.79 m/s, 180° | - | - |
| 1778011537 | 28.89° C | 74% | 1007.7 hPa | 0 mm | 2.24 m/s, 180° | - | - |
| 1778011248 | 28.89° C | 75% | 1007.8 hPa | 0 mm | 1.79 m/s, 194° | - | - |
| 1778010937 | 28.33° C | 74% | 1007.8 hPa | 0 mm | 1.79 m/s, 180° | - | - |
| 1778010635 | 28.33° C | 74% | 1007.8 hPa | 0 mm | 1.79 m/s, 207° | - | - |
| 1778010348 | 28.33° C | 74% | 1008 hPa | 0 mm | 2.24 m/s, 195° | - | - |
| 1778010037 | 28.33° C | 75% | 1007.9 hPa | 0 mm | 2.68 m/s, 180° | - | - |
| 1778009736 | 28.33° C | 75% | 1008.1 hPa | 0 mm | 1.79 m/s, 205° | - | - |
| 1778009446 | 28.33° C | 74% | 1008.1 hPa | 0 mm | 1.79 m/s, 158° | - | - |
| 1778009138 | 28.33° C | 77% | 1008.1 hPa | 0 mm | 1.79 m/s, 168° | - | - |
| 1778008836 | 28.33° C | 75% | 1008.2 hPa | 0 mm | 2.24 m/s, 202° | - | - |
| 1778008551 | 28.33° C | 75% | 1008.2 hPa | 0 mm | 1.79 m/s, 190° | - | - |
| 1778008236 | 28.33° C | 77% | 1008.1 hPa | 0 mm | 2.68 m/s, 163° | - | - |
| 1778007936 | 27.78° C | 78% | 1008.2 hPa | 0 mm | 2.24 m/s, 169° | - | - |
| 1778007645 | 27.78° C | 77% | 1008.3 hPa | 0 mm | 3.13 m/s, 263° | - | - |
| 1778007337 | 27.78° C | 77% | 1008.4 hPa | 0 mm | 1.34 m/s, 206° | - | - |
| 1778007037 | 27.78° C | 79% | 1008.5 hPa | 0 mm | 1.79 m/s, 188° | - | - |
| 1778006751 | 27.78° C | 78% | 1008.5 hPa | 0 mm | 2.24 m/s, 188° | - | - |
| 1778006436 | 27.78° C | 77% | 1008.6 hPa | 0 mm | 1.79 m/s, 229° | - | - |
| 1778006137 | 27.78° C | 79% | 1008.7 hPa | 0 mm | 1.34 m/s, 166° | - | - |
| 1778005852 | 27.22° C | 79% | 1008.7 hPa | 0 mm | 1.79 m/s, 143° | - | - |
| 1778005538 | 27.22° C | 79% | 1008.8 hPa | 0 mm | 1.34 m/s, 166° | - | - |
* Rain latest hour (hover to see other rain measurements)
** Current wind speed in m/s (hover to see current wind gust speed)